FW0954 Weather Reports


time (UTC)temp
C
wind
direction
speed
KPH
gust
KPH
rain 1hr
cm
rain 24hr
cm
rain mn
cm
humidity
%
barometer
mb
20220629024503 27 0 0.0 0.0 0.00 0.00 0.00 52 1019.3
20220629024004 27 0 0.0 0.0 0.00 0.00 0.00 52 1019.3
20220629023504 28 0 0.0 0.0 0.00 0.00 0.00 52 1019.3
20220629023004 28 0 0.0 0.0 0.00 0.00 0.00 52 1019.1
20220629022504 28 0 0.0 0.0 0.00 0.00 0.00 51 1019.2
20220629022004 28 135 0.0 1.6 0.00 0.00 0.00 51 1019.2
20220629021504 28 135 0.0 1.6 0.00 0.00 0.00 51 1019.1
20220629021004 28 0 0.0 0.0 0.00 0.00 0.00 50 1019.1
20220629020504 28 0 0.0 0.0 0.00 0.00 0.00 50 1019.0
20220629020004 28 0 0.0 0.0 0.00 0.00 0.00 48 1019.0
20220629015504 28 0 0.0 0.0 0.00 0.00 0.00 48 1018.9
20220629015004 28 0 0.0 0.0 0.00 0.00 0.00 47 1019.0
20220629014504 28 0 0.0 0.0 0.00 0.00 0.00 46 1019.0
20220629014004 29 0 0.0 0.0 0.00 0.00 0.00 45 1018.9
20220629013504 29 0 0.0 0.0 0.00 0.00 0.00 45 1018.8
20220629013004 29 0 0.0 0.0 0.00 0.00 0.00 44 1018.9
20220629012504 30 0 0.0 0.0 0.00 0.00 0.00 43 1018.9
20220629012004 30 98 0.0 1.6 0.00 0.00 0.00 43 1018.8
20220629011504 30 113 0.0 1.6 0.00 0.00 0.00 42 1018.7
20220629011004 30 117 0.0 1.6 0.00 0.00 0.00 42 1018.7
20220629010504 31 110 0.0 1.6 0.00 0.00 0.00 40 1018.7
20220629010004 31 107 0.0 4.8 0.00 0.00 0.00 39 1018.7
20220629005504 32 107 0.0 4.8 0.00 0.00 0.00 39 1018.6
20220629005004 32 0 0.0 0.0 0.00 0.00 0.00 38 1018.6
20220629004503 32 102 0.0 1.6 0.00 0.00 0.00 37 1018.5
20220629004004 32 102 0.0 1.6 0.00 0.00 0.00 37 1018.6
20220629003504 32 0 0.0 0.0 0.00 0.00 0.00 36 1018.5
20220629003004 33 0 0.0 0.0 0.00 0.00 0.00 37 1018.4
20220629002504 33 100 0.0 1.6 0.00 0.00 0.00 37 1018.4
20220629002004 33 100 0.0 1.6 0.00 0.00 0.00 36 1018.4
20220629001504 33 15 0.0 1.6 0.00 0.00 0.00 34 1018.4
20220629001003 33 61 0.0 3.2 0.00 0.00 0.00 33 1018.4
20220629000504 33 70 0.0 3.2 0.00 0.00 0.00 33 1018.4
20220629000004 33 357 0.0 4.8 0.00 0.00 0.00 34 1018.4
20220628235504 33 65 0.0 4.8 0.00 0.00 0.00 34 1018.3
20220628235004 33 88 0.0 4.8 0.00 0.00 0.00 34 1018.3
20220628234504 33 8 0.0 3.2 0.00 0.00 0.00 33 1018.3
20220628234003 33 16 0.0 4.8 0.00 0.00 0.00 34 1018.3
20220628233504 33 66 0.0 4.8 0.00 0.00 0.00 35 1018.4
20220628233004 33 99 0.0 3.2 0.00 0.00 0.00 36 1018.3
20220628232503 34 112 0.0 3.2 0.00 0.00 0.00 34 1018.4
20220628232003 35 0 0.0 0.0 0.00 0.00 0.00 33 1018.4
20220628231504 35 0 0.0 0.0 0.00 0.00 0.00 32 1018.5
20220628231004 35 0 0.0 0.0 0.00 0.00 0.00 33 1018.5
20220628230503 35 139 0.0 3.2 0.00 0.00 0.00 32 1018.6
20220628230004 35 109 0.0 3.2 0.00 0.00 0.00 33 1018.6
20220628225504 35 96 0.0 1.6 0.00 0.00 0.00 31 1018.7
20220628225003 35 117 0.0 6.4 0.00 0.00 0.00 31 1018.7
20220628224504 34 103 0.0 6.4 0.00 0.00 0.00 32 1018.7
20220628224004 35 2 0.0 4.8 0.00 0.00 0.00 32 1018.8
20220628223504 35 357 0.0 4.8 0.00 0.00 0.00 33 1018.9
20220628223004 35 45 0.0 3.2 0.00 0.00 0.00 34 1019.0
20220628222504 35 90 0.0 3.2 0.00 0.00 0.00 35 1019.1
20220628222003 34 84 0.0 3.2 0.00 0.00 0.00 34 1019.3
20220628221504 35 121 0.0 3.2 0.00 0.00 0.00 33 1019.3
20220628221004 34 183 0.0 3.2 0.00 0.00 0.00 33 1019.4
20220628220503 34 107 0.0 1.6 0.00 0.00 0.00 32 1019.5
20220628220004 34 41 0.0 4.8 0.00 0.00 0.00 32 1019.6
20220628215504 34 73 0.0 4.8 0.00 0.00 0.00 33 1019.7
20220628215003 34 104 0.0 4.8 0.00 0.00 0.00 34 1019.6
20220628214505 35 104 0.0 3.2 0.00 0.00 0.00 34 1019.7
20220628214004 34 99 0.0 3.2 0.00 0.00 0.00 35 1019.8
20220628213504 34 39 0.0 3.2 0.00 0.00 0.00 35 1019.8
20220628213003 33 26 0.0 4.8 0.00 0.00 0.00 35 1019.8
20220628212504 33 78 0.0 4.8 0.00 0.00 0.00 37 1019.9
20220628212004 33 44 1.6 6.4 0.00 0.00 0.00 36 1020.0
20220628211504 33 307 0.0 6.4 0.00 0.00 0.00 37 1020.2
20220628211004 33 37 0.0 3.2 0.00 0.00 0.00 35 1020.2
20220628210503 33 4 0.0 3.2 0.00 0.00 0.00 35 1020.2
20220628210004 34 15 0.0 3.2 0.00 0.00 0.00 34 1020.3
20220628205505 35 27 0.0 3.2 0.00 0.00 0.00 34 1020.4
20220628205003 35 332 0.0 4.8 0.00 0.00 0.00 36 1020.4
20220628204503 35 43 1.6 4.8 0.00 0.00 0.00 37 1020.5
20220628204004 34 116 1.6 6.4 0.00 0.00 0.00 38 1020.5
20220628203504 34 113 1.6 6.4 0.00 0.00 0.00 36 1020.7
20220628203004 34 126 1.6 4.8 0.00 0.00 0.00 37 1020.7
20220628202504 33 321 1.6 6.4 0.00 0.00 0.00 38 1020.8
20220628202004 34 6 1.6 6.4 0.00 0.00 0.00 37 1020.8
20220628201504 34 107 0.0 4.8 0.00 0.00 0.00 38 1020.9
20220628201003 34 127 0.0 4.8 0.00 0.00 0.00 38 1020.9
20220628200504 34 118 0.0 4.8 0.00 0.00 0.00 37 1021.0
20220628200004 34 111 0.0 3.2 0.00 0.00 0.00 37 1021.1
20220628195504 34 140 1.6 6.4 0.00 0.00 0.00 37 1021.2
20220628195004 34 156 1.6 6.4 0.00 0.00 0.00 39 1021.2
20220628194504 34 136 0.0 4.8 0.00 0.00 0.00 37 1021.2
20220628194004 34 96 0.0 4.8 0.00 0.00 0.00 37 1021.2
20220628193504 33 88 0.0 4.8 0.00 0.00 0.00 39 1021.3
20220628193004 33 86 1.6 3.2 0.00 0.00 0.00 39 1021.3
20220628192503 33 83 1.6 4.8 0.00 0.00 0.00 38 1021.2
20220628192004 33 53 1.6 4.8 0.00 0.00 0.00 39 1021.1
20220628191504 33 82 1.6 6.4 0.00 0.00 0.00 37 1021.3
20220628191003 33 106 1.6 6.4 0.00 0.00 0.00 40 1021.5
20220628190504 33 97 1.6 4.8 0.00 0.00 0.00 38 1021.5
20220628190004 33 128 1.6 6.4 0.00 0.00 0.00 38 1021.5
20220628185503 33 123 1.6 6.4 0.00 0.00 0.00 39 1021.6
20220628185004 33 109 1.6 8.0 0.00 0.00 0.00 39 1021.8
20220628184503 33 92 1.6 8.0 0.00 0.00 0.00 40 1021.9
20220628184003 33 58 1.6 3.2 0.00 0.00 0.00 39 1022.0
20220628183504 33 41 0.0 3.2 0.00 0.00 0.00 41 1022.1
20220628183004 33 44 0.0 3.2 0.00 0.00 0.00 40 1022.0
20220628182503 33 72 0.0 3.2 0.00 0.00 0.00 41 1022.2
20220628182004 32 89 0.0 4.8 0.00 0.00 0.00 43 1022.2
20220628181504 32 105 1.6 9.7 0.00 0.00 0.00 41 1022.3
20220628181003 32 97 1.6 9.7 0.00 0.00 0.00 41 1022.4
20220628180504 32 92 1.6 6.4 0.00 0.00 0.00 41 1022.3
20220628180005 32 88 1.6 4.8 0.00 0.00 0.00 41 1022.3
20220628175504 32 63 1.6 4.8 0.00 0.00 0.00 41 1022.4
20220628175003 32 81 1.6 6.4 0.00 0.00 0.00 43 1022.5
20220628174504 32 107 1.6 8.0 0.00 0.00 0.00 44 1022.5
20220628174004 32 124 0.0 9.7 0.00 0.00 0.00 41 1022.5
20220628173504 31 76 1.6 9.7 0.00 0.00 0.00 42 1022.5
20220628173004 31 98 1.6 6.4 0.00 0.00 0.00 43 1022.5
20220628172503 31 111 1.6 6.4 0.00 0.00 0.00 41 1022.5
20220628172004 31 107 3.2 9.7 0.00 0.00 0.00 41 1022.6
20220628171504 31 107 3.2 11.3 0.00 0.00 0.00 42 1022.6
20220628171003 31 105 3.2 11.3 0.00 0.00 0.00 42 1022.6
20220628170504 31 93 1.6 8.0 0.00 0.00 0.00 43 1022.6
20220628170004 31 69 1.6 8.0 0.00 0.00 0.00 43 1022.6
20220628165503 31 101 1.6 8.0 0.00 0.00 0.00 45 1022.7
20220628165004 31 111 3.2 8.0 0.00 0.00 0.00 43 1022.7
20220628164504 31 109 1.6 6.4 0.00 0.00 0.00 43 1022.7
20220628164003 31 102 1.6 9.7 0.00 0.00 0.00 42 1022.8
20220628163504 31 93 1.6 9.7 0.00 0.00 0.00 42 1022.7
20220628163004 31 86 1.6 8.0 0.00 0.00 0.00 43 1022.9
20220628162503 30 86 1.6 9.7 0.00 0.00 0.00 45 1022.8
20220628162004 30 87 1.6 11.3 0.00 0.00 0.00 44 1022.8
20220628161504 30 74 1.6 11.3 0.00 0.00 0.00 45 1022.8
20220628161003 30 56 1.6 6.4 0.00 0.00 0.00 46 1022.7
20220628160504 30 76 1.6 6.4 0.00 0.00 0.00 45 1022.8
20220628160004 30 67 1.6 6.4 0.00 0.00 0.00 46 1022.7
20220628155504 30 69 1.6 6.4 0.00 0.00 0.00 45 1022.7
20220628155004 29 84 1.6 4.8 0.00 0.00 0.00 46 1022.7
20220628154503 29 82 1.6 4.8 0.00 0.00 0.00 46 1022.7
20220628154004 29 85 1.6 8.0 0.00 0.00 0.00 46 1022.6
20220628153504 29 84 0.0 8.0 0.00 0.00 0.00 47 1022.6
20220628153003 29 75 0.0 3.2 0.00 0.00 0.00 47 1022.5
20220628152504 29 81 0.0 4.8 0.00 0.00 0.00 50 1022.4
20220628152004 28 80 0.0 4.8 0.00 0.00 0.00 49 1022.4
20220628151503 28 90 0.0 3.2 0.00 0.00 0.00 49 1022.7
20220628151004 28 70 0.0 3.2 0.00 0.00 0.00 50 1022.7
20220628150504 28 62 0.0 3.2 0.00 0.00 0.00 50 1022.6
20220628150004 28 73 0.0 3.2 0.00 0.00 0.00 52 1022.5
20220628145504 27 9 0.0 3.2 0.00 0.00 0.00 53 1022.4
20220628145003 27 4 0.0 3.2 0.00 0.00 0.00 53 1022.5
20220628144504 27 81 0.0 4.8 0.00 0.00 0.00 54 1022.5
20220628144004 27 90 0.0 4.8 0.00 0.00 0.00 56 1022.6
20220628143503 27 104 0.0 3.2 0.00 0.00 0.00 56 1022.4
20220628143004 26 114 0.0 3.2 0.00 0.00 0.00 56 1022.5
20220628142504 26 170 0.0 1.6 0.00 0.00 0.00 56 1022.6
20220628142003 26 239 0.0 1.6 0.00 0.00 0.00 58 1022.5
20220628141504 26 155 0.0 3.2 0.00 0.00 0.00 58 1022.5
20220628141003 26 104 0.0 3.2 0.00 0.00 0.00 58 1022.4
20220628140504 26 96 0.0 1.6 0.00 0.00 0.00 60 1022.4
20220628140004 26 65 0.0 1.6 0.00 0.00 0.00 62 1022.4
20220628135503 25 72 0.0 4.8 0.00 0.00 0.00 63 1022.4
20220628135004 25 72 0.0 4.8 0.00 0.00 0.00 64 1022.4
20220628134504 25 0 0.0 0.0 0.00 0.00 0.00 64 1022.4
20220628134003 25 0 0.0 0.0 0.00 0.00 0.00 65 1022.4
20220628133504 25 111 0.0 1.6 0.00 0.00 0.00 66 1022.3
20220628133004 25 118 0.0 1.6 0.00 0.00 0.00 67 1022.3
20220628132503 25 217 0.0 1.6 0.00 0.00 0.00 68 1022.3
20220628132003 25 232 0.0 1.6 0.00 0.00 0.00 69 1022.1
20220628131504 24 90 0.0 1.6 0.00 0.00 0.00 70 1022.1
20220628131003 24 106 0.0 1.6 0.00 0.00 0.00 71 1022.2
20220628130504 24 119 0.0 1.6 0.00 0.00 0.00 72 1022.1
20220628130004 24 109 0.0 1.6 0.00 0.00 0.00 74 1022.1
20220628125503 24 109 0.0 1.6 0.00 0.00 0.00 75 1022.0
20220628125003 24 263 0.0 1.6 0.00 0.00 0.00 75 1022.0
20220628124504 23 269 0.0 1.6 0.00 0.00 0.00 74 1022.1
20220628124004 23 0 0.0 0.0 0.00 0.00 0.00 74 1022.0
20220628123503 23 0 0.0 0.0 0.00 0.00 0.00 73 1021.9
20220628123004 23 0 0.0 0.0 0.00 0.00 0.00 72 1021.8
20220628122504 23 129 0.0 1.6 0.00 0.00 0.00 71 1021.9
20220628122003 23 129 0.0 1.6 0.00 0.00 0.00 71 1022.0
20220628121504 22 0 0.0 0.0 0.00 0.00 0.00 73 1022.0
20220628121003 22 0 0.0 0.0 0.00 0.00 0.00 74 1021.9
20220628120503 22 208 0.0 1.6 0.00 0.00 0.00 75 1021.8
20220628120004 22 208 0.0 1.6 0.00 0.00 0.00 75 1021.8
20220628115504 22 0 0.0 0.0 0.00 0.00 0.00 75 1021.6
20220628115003 22 0 0.0 0.0 0.00 0.00 0.00 75 1021.6
20220628114504 22 0 0.0 0.0 0.00 0.00 0.00 75 1021.6
20220628114004 22 0 0.0 0.0 0.00 0.00 0.00 74 1021.6
20220628113503 22 0 0.0 0.0 0.00 0.00 0.00 74 1021.6
20220628113003 22 0 0.0 0.0 0.00 0.00 0.00 74 1021.6
20220628112504 22 0 0.0 0.0 0.00 0.00 0.00 74 1021.6
20220628112004 22 0 0.0 0.0 0.00 0.00 0.00 73 1021.5
20220628111504 22 130 0.0 1.6 0.00 0.00 0.00 73 1021.5
20220628111004 23 117 0.0 1.6 0.00 0.00 0.00 72 1021.4
20220628110503 23 104 0.0 1.6 0.00 0.00 0.00 72 1021.3
20220628110004 23 0 0.0 0.0 0.00 0.00 0.00 72 1021.2
20220628105504 23 103 0.0 1.6 0.00 0.00 0.00 71 1021.2
20220628105003 23 103 0.0 1.6 0.00 0.00 0.00 71 1021.2
20220628104504 23 112 0.0 1.6 0.00 0.00 0.00 72 1021.3
20220628104003 23 112 0.0 1.6 0.00 0.00 0.00 72 1021.4
20220628103503 23 0 0.0 0.0 0.00 0.00 0.00 72 1021.4
20220628103004 23 192 0.0 1.6 0.00 0.00 0.00 72 1021.5
20220628102504 23 192 0.0 1.6 0.00 0.00 0.00 71 1021.5
20220628102003 23 0 0.0 0.0 0.00 0.00 0.00 72 1021.4
20220628101505 23 0 0.0 0.0 0.00 0.00 0.00 72 1021.4
20220628101004 23 0 0.0 0.0 0.00 0.00 0.00 72 1021.3
20220628100503 23 0 0.0 0.0 0.00 0.00 0.00 72 1021.3
20220628100004 23 0 0.0 0.0 0.00 0.00 0.00 72 1021.2
20220628095504 23 0 0.0 0.0 0.00 0.00 0.00 73 1021.2
20220628095003 23 139 0.0 4.8 0.00 0.00 0.00 73 1021.2
20220628094503 23 140 0.0 4.8 0.00 0.00 0.00 72 1021.2
20220628094004 23 127 0.0 4.8 0.00 0.00 0.00 73 1021.3
20220628093504 23 131 0.0 4.8 0.00 0.00 0.00 73 1021.3
20220628093004 23 111 0.0 3.2 0.00 0.00 0.00 73 1021.1
20220628092503 23 117 0.0 3.2 0.00 0.00 0.00 73 1021.0
20220628092004 23 127 0.0 3.2 0.00 0.00 0.00 73 1021.0
20220628091504 23 117 0.0 1.6 0.00 0.00 0.00 73 1021.1
20220628091003 23 98 0.0 4.8 0.00 0.00 0.00 73 1020.8
20220628090504 23 86 0.0 4.8 0.00 0.00 0.00 73 1020.9
20220628090004 24 86 0.0 4.8 0.00 0.00 0.00 73 1020.8
20220628085504 24 87 0.0 4.8 0.00 0.00 0.00 73 1020.8
20220628085005 24 95 0.0 6.4 0.00 0.00 0.00 73 1020.8
20220628084504 24 102 1.6 6.4 0.00 0.00 0.00 73 1020.7
20220628084003 24 104 1.6 6.4 0.00 0.00 0.00 74 1020.6
20220628083504 24 94 0.0 3.2 0.00 0.00 0.00 74 1020.6
20220628083004 24 86 0.0 3.2 0.00 0.00 0.00 73 1020.6
20220628082504 24 92 0.0 3.2 0.00 0.00 0.00 74 1020.7
20220628082004 24 93 0.0 3.2 0.00 0.00 0.00 74 1020.7
20220628081503 25 97 0.0 4.8 0.00 0.00 0.00 74 1020.8
20220628081004 25 94 0.0 4.8 0.00 0.00 0.00 74 1020.8
20220628080504 25 94 0.0 6.4 0.00 0.00 0.00 74 1020.7
20220628080003 25 95 0.0 6.4 0.00 0.00 0.00 74 1020.7
20220628075504 25 96 0.0 6.4 0.00 0.00 0.00 74 1020.6
20220628075004 25 95 0.0 6.4 0.00 0.00 0.00 74 1020.8
20220628074503 25 95 0.0 6.4 0.00 0.00 0.00 74 1020.9
20220628074003 25 97 0.0 9.7 0.00 0.00 0.00 74 1021.0
20220628073504 25 98 0.0 9.7 0.00 0.00 0.00 73 1021.0
20220628073004 25 99 0.0 9.7 0.00 0.00 0.00 74 1021.0
20220628072503 25 94 1.6 9.7 0.00 0.00 0.00 74 1021.0
20220628072004 25 87 1.6 6.4 0.00 0.00 0.00 74 1021.0
20220628071504 25 90 0.0 6.4 0.00 0.00 0.00 74 1020.9
20220628071004 25 99 0.0 3.2 0.00 0.00 0.00 74 1021.0
20220628070504 25 90 0.0 4.8 0.00 0.00 0.00 74 1020.9
20220628070003 25 88 0.0 4.8 0.00 0.00 0.00 74 1021.1
20220628065504 25 61 0.0 1.6 0.00 0.00 0.00 75 1021.0
20220628065004 25 73 0.0 3.2 0.00 0.00 0.00 75 1021.1
20220628064503 25 104 0.0 4.8 0.00 0.00 0.00 74 1021.1
20220628064004 25 103 0.0 4.8 0.00 0.00 0.00 75 1021.1
20220628063503 25 91 0.0 4.8 0.00 0.00 0.00 75 1021.1
20220628063003 25 102 0.0 4.8 0.00 0.00 0.00 74 1021.1
20220628062504 25 74 0.0 1.6 0.00 0.00 0.00 74 1021.1
20220628062004 25 240 0.0 1.6 0.00 0.00 0.00 74 1021.1
20220628061503 25 240 0.0 1.6 0.00 0.00 0.00 74 1021.0
20220628061004 26 0 0.0 0.0 0.00 0.00 0.00 74 1021.1
20220628060503 26 0 0.0 0.0 0.00 0.00 0.00 74 1021.1
20220628060004 26 0 0.0 0.0 0.00 0.00 0.00 74 1021.1
20220628055504 26 0 0.0 0.0 0.00 0.00 0.00 73 1021.1
20220628055004 26 76 0.0 1.6 0.00 0.00 0.00 73 1021.1
20220628054504 26 82 0.0 1.6 0.00 0.00 0.00 73 1021.1
20220628054003 26 126 0.0 3.2 0.00 0.00 0.00 73 1021.1
20220628053504 26 111 0.0 3.2 0.00 0.00 0.00 73 1021.2
20220628053004 26 100 0.0 3.2 0.00 0.00 0.00 72 1021.2
20220628052503 26 98 0.0 3.2 0.00 0.00 0.00 73 1021.3
20220628052004 26 75 0.0 3.2 0.00 0.00 0.00 73 1021.2
20220628051503 26 73 0.0 4.8 0.00 0.00 0.00 73 1021.3
20220628051003 26 80 0.0 4.8 0.00 0.00 0.00 73 1021.3
20220628050504 26 92 0.0 3.2 0.00 0.00 0.00 73 1021.4
20220628050004 26 0 0.0 0.0 0.00 0.00 0.00 74 1021.3
20220628045503 26 102 0.0 1.6 0.00 0.00 0.00 73 1021.3
20220628045003 26 98 0.0 1.6 0.00 0.00 0.00 73 1021.2
20220628044504 26 67 0.0 1.6 0.00 0.00 0.00 73 1021.2
20220628044005 27 77 0.0 1.6 0.00 0.00 0.00 73 1021.1
20220628043504 27 0 0.0 0.0 0.00 0.00 0.00 72 1021.1
20220628043003 27 90 0.0 3.2 0.00 0.00 0.00 72 1021.1
20220628042503 27 86 0.0 4.8 0.00 0.00 0.00 71 1021.0
20220628042004 27 101 0.0 4.8 0.00 0.00 0.00 71 1020.9
20220628041503 27 77 0.0 6.4 0.00 0.00 0.00 71 1020.9
20220628041004 27 66 0.0 6.4 0.00 0.00 0.00 71 1020.9
20220628040504 27 0 0.0 0.0 0.00 0.00 0.00 72 1020.8
20220628040003 27 101 0.0 1.6 0.00 0.00 0.00 71 1020.6
20220628035503 27 101 0.0 1.6 0.00 0.00 0.00 71 1020.8
20220628035004 27 0 0.0 0.0 0.00 0.00 0.00 71 1020.7
20220628034503 27 80 0.0 1.6 0.00 0.00 0.00 70 1020.7
20220628034003 28 79 0.0 1.6 0.00 0.00 0.00 70 1020.6
20220628033504 28 69 0.0 3.2 0.00 0.00 0.00 69 1020.5
20220628033003 28 93 0.0 3.2 0.00 0.00 0.00 69 1020.3
20220628032503 28 104 0.0 3.2 0.00 0.00 0.00 69 1020.3
20220628032004 28 86 0.0 1.6 0.00 0.00 0.00 69 1020.1
20220628031504 28 84 0.0 4.8 0.00 0.00 0.00 69 1020.1
20220628031003 28 85 0.0 4.8 0.00 0.00 0.00 68 1020.0
20220628030504 28 90 0.0 1.6 0.00 0.00 0.00 68 1019.9
20220628030004 28 97 0.0 4.8 0.00 0.00 0.00 69 1019.8
20220628025503 28 96 0.0 4.8 0.00 0.00 0.00 69 1019.8
20220628025004 28 0 0.0 0.0 0.00 0.00 0.00 68 1019.8